TimeEST,TemperatureF,Dew PointF,Humidity,Sea Level PressureIn,VisibilityMPH,Wind Direction,Wind SpeedMPH,Gust SpeedMPH,PrecipitationIn,Events,Conditions,WindDirDegrees,DateUTC
12:53 AM,10.0,8.1,92,30.52,9.0,Calm,Calm,-,N/A,,Clear,0,2000-12-10 05:53:00
1:53 AM,9.0,7.0,92,30.52,10.0,Calm,Calm,-,N/A,,Clear,0,2000-12-10 06:53:00
2:53 AM,9.0,6.1,88,30.52,10.0,Calm,Calm,-,N/A,,Clear,0,2000-12-10 07:53:00
3:53 AM,9.0,7.0,92,30.51,10.0,Calm,Calm,-,N/A,,Clear,0,2000-12-10 08:53:00
4:53 AM,8.1,5.0,87,30.50,10.0,Calm,Calm,-,N/A,,Clear,0,2000-12-10 09:53:00
5:53 AM,9.0,6.1,88,30.49,10.0,Calm,Calm,-,N/A,,Clear,0,2000-12-10 10:53:00
6:53 AM,8.1,6.1,92,30.50,9.0,Calm,Calm,-,N/A,,Clear,0,2000-12-10 11:53:00
7:53 AM,8.1,5.0,87,30.48,9.0,Calm,Calm,-,N/A,,Clear,0,2000-12-10 12:53:00
8:53 AM,14.0,10.9,88,30.48,9.0,Calm,Calm,-,N/A,,Clear,0,2000-12-10 13:53:00
9:53 AM,21.0,12.9,71,30.47,10.0,NE,4.6,-,N/A,,Clear,50,2000-12-10 14:53:00
10:53 AM,25.0,14.0,63,30.45,10.0,Calm,Calm,-,N/A,,Unknown,0,2000-12-10 15:53:00
11:45 AM,-9999,-9999,N/A,30.37,10.0,Calm,Calm,-,N/A,,Overcast,0,2000-12-10 16:45:00
12:45 PM,-9999,-9999,N/A,30.35,10.0,Calm,Calm,-,N/A,,Overcast,0,2000-12-10 17:45:00
1:45 PM,-9999,-9999,N/A,30.32,10.0,Calm,Calm,-,N/A,,Scattered Clouds,0,2000-12-10 18:45:00
2:45 PM,-9999,-9999,N/A,30.32,10.0,SE,4.6,-,N/A,,Mostly Cloudy,140,2000-12-10 19:45:00
3:45 PM,-9999,-9999,N/A,30.32,10.0,Calm,Calm,-,N/A,,Overcast,0,2000-12-10 20:45:00
4:45 PM,-9999,-9999,N/A,30.30,10.0,Calm,Calm,-,N/A,,Overcast,0,2000-12-10 21:45:00
5:45 PM,-9999,-9999,N/A,30.29,10.0,Calm,Calm,-,N/A,,Overcast,0,2000-12-10 22:45:00
6:45 PM,-9999,-9999,N/A,30.27,5.0,Calm,Calm,-,N/A,,Unknown,0,2000-12-10 23:45:00
7:45 PM,-9999,-9999,N/A,30.26,5.0,Calm,Calm,-,N/A,,Unknown,0,2000-12-11 00:45:00
9:45 PM,-9999,-9999,N/A,30.24,4.0,Calm,Calm,-,N/A,,Overcast,0,2000-12-11 02:45:00